Location: Eurasberg
(48.3353°N, 11.0839°E)
Time: 05:36:08
(UTC+00:00)

Gblst 52 Del rocket - Pass Details

Date: 18 January 2026
Orbit: 805 x 1364 km, 51.5° (Epoch: 9 February)

Event Time Altitude Azimuth Distance (km) Brightness Sun altitude
Exits shadow 05:04:20 34° 279° (W) 1,298 4.6 -18.7°
Maximum altitude 05:06:38 64° 211° (SSW) 891 4.2 -18.3°
Drops below altitude 10° 05:12:07 10° 131° (SE) 2,424 7.5 -17.4°
Sets 05:14:40 0° 128° (SE) 3,398 8.5 -17.0°
